Wind_Speed
25 25 25 24 23 23 23 21 20 19 20 20 19 18 17 17 17 17 17 18 18 18 17 17 17 17 16 16 16 16 15 15 15 15 15 15 14 14 14 14 14 14 13 13
26 26 27 27 26 25 24 24 23 23 22 23 22 21 20 20 20 20 20 20 20 20 20 20 19 19 19 18 18 18 18 18 18 18 17 17 17 16 16 16 16 15 15 14
27 28 27 28 27 26 26 26 26 26 25 25 24 23 23 23 23 23 23 23 23 23 23 22 21 21 21 20 20 20 20 20 20 20 20 19 19 18 17 17 16 16 15 15
28 29 29 29 27 26 26 27 28 28 27 27 27 26 26 26 26 26 26 26 26 26 25 24 24 24 23 22 22 21 21 22 22 22 21 21 21 21 20 19 18 18 17 17
30 30 30 31 29 27 27 28 29 29 28 28 28 28 28 28 27 27 27 27 27 27 27 26 26 26 25 25 24 23 23 23 23 23 22 22 21 21 20 20 19 19 19 19
31 31 32 32 30 29 29 31 30 29 29 29 29 29 29 28 28 28 28 28 28 28 29 28 27 27 27 26 26 25 24 24 24 24 24 23 23 22 22 21 21 21 21 20
32 32 33 33 32 31 31 32 30 30 30 30 30 30 30 29 29 29 29 29 29 29 29 30 29 29 28 27 27 27 26 26 25 25 25 24 24 24 24 24 23 23 23 23
33 33 34 33 33 32 32 32 32 31 32 32 32 32 32 31 31 30 30 30 31 30 31 31 31 30 30 29 29 29 28 27 27 26 26 25 25 26 27 26 25 25 25 25
35 35 35 34 34 34 34 34 33 33 34 34 34 33 33 33 32 32 32 32 31 31 32 32 32 32 32 31 30 30 29 28 28 28 28 27 27 27 26 26 27 27 27 27
36 35 35 35 35 35 35 35 35 35 35 36 36 35 34 34 34 33 32 32 33 32 33 33 33 33 33 32 32 32 31 30 29 29 29 28 28 28 28 27 27 27 27 27
36 35 35 35 35 35 35 35 35 35 35 35 36 35 35 35 35 34 34 34 34 35 34 34 34 34 34 34 34 33 32 32 31 31 31 30 30 29 29 29 29 29 29 29
35 34 35 35 35 35 36 36 35 35 35 36 35 35 35 35 35 35 35 35 35 35 35 35 34 33 33 34 34 33 33 33 32 32 32 31 31 31 31 31 31 31 31 31
34 34 34 33 34 35 35 35 36 35 35 36 37 37 36 36 36 36 36 36 36 36 35 35 35 34 33 34 34 34 34 34 34 34 33 32 32 32 32 32 32 32 32 32
34 34 33 33 33 34 34 34 35 36 36 36 37 37 37 36 37 37 37 36 36 36 36 36 36 36 35 35 35 35 34 33 33 33 33 33 33 33 33 33 33 33 33 33
33 33 33 33 33 33 33 34 34 35 36 37 37 37 37 37 36 36 37 37 36 36 36 37 37 37 37 36 35 34 33 33 33 33 34 34 34 34 34 34 34 34 34 34
32 32 32 32 33 32 32 32 33 33 34 34 34 35 36 36 35 34 35 35 35 35 35 35 36 36 36 36 35 34 34 34 34 33 34 34 35 35 34 34 33 33 34 33
30 30 30 30 30 30 31 31 32 31 32 32 32 33 33 34 33 32 32 33 33 34 34 34 34 35 35 35 35 35 35 34 34 34 35 35 35 35 35 35 35 34 34 33
29 30 30 29 29 29 30 29 30 30 31 31 30 31 31 31 31 32 32 32 32 32 33 33 33 34 34 34 34 35 36 35 34 34 34 35 35 35 36 36 36 36 35 34
27 27 28 28 28 29 28 28 29 29 28 29 29 29 30 29 29 30 31 31 31 31 31 31 31 32 33 34 35 36 36 36 35 35 36 36 36 35 36 36 37 36 35 36
25 25 26 27 27 26 25 25 26 26 26 27 28 28 28 28 28 28 28 29 30 30 30 31 31 32 33 34 34 35 35 35 35 35 35 35 35 35 35 36 36 36 36 37
22 22 23 23 23 23 22 22 22 23 24 24 25 25 25 26 26 27 27 27 27 28 28 29 29 30 31 32 32 33 34 34 34 34 34 35 35 35 35 35 36 36 36 36
19 19 19 19 19 19 20 20 20 20 21 21 22 22 22 23 24 25 24 24 25 26 26 27 27 28 28 29 29 30 31 32 32 33 33 33 33 33 33 34 34 35 35 35
17 17 17 16 16 16 17 17 18 19 19 20 20 19 19 20 21 21 21 22 23 23 23 23 24 25 26 27 27 28 29 30 31 31 31 31 31 32 32 32 32 32 33 33
14 14 13 13 14 14 14 15 15 16 16 16 16 16 16 16 17 17 18 19 19 20 20 20 22 23 24 25 26 27 27 28 29 30 29 29 29 30 31 31 32 32 33 32
12 12 12 11 11 11 11 11 11 11 12 12 13 13 13 13 14 15 16 17 18 19 19 19 20 21 22 23 23 24 25 25 26 26 26 27 28 29 30 31 31 31 31 30
11 11 10 9 9 9 8 8 9 9 9 10 10 10 11 11 12 13 14 15 16 17 17 18 18 19 20 20 20 21 22 22 23 24 25 26 27 28 29 29 30 30 29 29
8 8 9 9 9 8 8 8 8 8 9 9 9 10 11 12 13 13 13 14 15 15 16 16 17 17 17 17 18 18 19 21 22 23 24 25 26 27 28 28 28 29 29 30
Wind_Direction
240 244 247 249 249 248 249 252 255 258 261 264 265 268 270 273 274 275 277 281 284 287 290 291 292 293 294 294 295 294 291 291 290 291 290 287 286 286 285 287 288 290 286 285
243 245 248 250 251 251 251 253 256 259 262 264 264 266 268 271 272 273 273 275 279 283 286 288 288 290 290 290 291 293 290 287 286 288 288 287 285 284 284 285 286 286 284 282
245 246 250 252 252 252 253 254 256 259 262 264 265 266 267 268 270 270 271 272 275 278 281 283 283 285 286 286 288 289 290 288 285 284 284 283 282 280 280 280 279 279 280 280
248 249 251 253 254 254 254 255 256 259 261 264 266 267 267 267 269 269 270 271 272 273 275 276 278 281 282 281 283 285 287 288 286 283 280 280 278 277 276 275 276 274 276 275
248 251 254 254 255 255 257 258 258 259 261 263 266 268 268 267 268 268 268 269 270 270 272 273 274 277 279 279 280 281 282 284 286 284 282 280 278 275 273 271 272 274 274 271
249 250 254 256 257 258 259 260 260 260 262 263 264 266 267 267 268 268 267 268 269 270 271 272 273 274 276 277 276 276 278 279 282 282 281 280 279 277 275 272 270 272 272 271
250 252 255 258 258 258 258 261 262 262 264 264 264 265 267 267 268 268 267 267 266 268 270 272 272 272 272 273 273 272 273 274 276 278 279 278 277 276 275 272 270 270 270 271
250 253 255 257 258 258 259 261 262 262 262 263 264 266 267 268 268 267 267 267 266 267 268 270 271 271 271 270 270 270 269 270 273 275 275 275 275 276 275 273 271 271 271 273
251 253 256 258 259 259 260 262 263 262 262 263 264 265 266 267 267 266 266 266 266 266 267 268 270 271 271 269 268 268 269 269 270 272 272 272 273 275 275 273 271 272 273 272
253 255 256 258 260 261 262 262 264 265 264 265 266 265 266 266 266 266 265 265 265 266 266 267 269 270 270 268 267 267 267 268 269 271 271 272 273 274 276 276 275 275 275 276
255 257 258 260 261 262 262 263 265 267 268 268 267 266 267 267 267 265 265 266 265 266 265 265 267 268 269 269 266 265 265 266 268 270 271 272 272 273 274 275 275 276 276 277
256 256 258 259 260 262 263 264 266 267 268 268 268 267 267 267 267 266 266 266 265 265 265 265 266 266 267 268 267 265 265 266 268 269 270 271 271 272 273 274 275 276 276 278
258 258 258 259 260 262 264 265 266 267 269 269 268 267 267 267 267 267 266 267 266 264 264 264 265 265 265 266 266 266 265 266 268 268 269 269 270 271 271 272 275 276 276 277
259 259 259 260 261 262 264 265 266 267 268 269 268 267 267 267 267 267 266 267 266 264 263 262 263 264 264 264 265 266 266 267 269 270 270 270 270 271 272 273 274 275 276 278
258 258 260 262 262 262 264 265 267 268 269 269 268 267 266 266 266 265 265 266 266 265 264 263 262 262 262 262 264 265 264 266 268 270 270 271 271 272 272 272 274 276 277 278
258 259 262 263 264 263 264 265 266 268 269 269 268 268 266 265 266 265 264 264 265 266 266 265 263 262 261 260 262 264 264 265 268 269 270 271 272 273 273 274 276 277 278 278
260 261 263 264 265 264 265 266 266 267 268 269 268 268 267 266 265 266 263 263 263 264 265 264 263 261 260 259 261 262 264 266 267 268 269 270 270 271 273 273 275 277 278 277
264 264 264 265 266 265 266 267 267 267 268 269 268 268 267 266 265 265 263 263 263 263 263 263 263 262 261 260 261 262 264 265 266 267 268 269 269 271 272 273 274 275 276 276
267 265 262 263 265 265 265 265 266 267 267 268 268 267 267 266 267 266 264 263 264 266 265 265 265 264 263 262 262 263 263 265 266 267 268 268 268 269 271 273 274 274 276 276
267 265 264 263 265 265 264 264 265 266 266 268 268 268 267 267 266 266 265 264 265 267 266 265 266 266 266 265 264 263 264 265 266 266 266 267 268 269 270 272 274 274 275 275
269 267 266 265 266 265 263 263 266 267 267 268 270 271 269 268 267 266 266 266 267 269 268 267 267 267 267 266 265 264 264 264 264 264 265 267 268 269 270 271 273 274 274 274
268 266 266 268 266 266 265 265 266 268 268 270 272 271 270 269 267 267 268 270 270 270 270 269 269 270 269 268 266 266 266 265 265 265 266 266 267 269 271 272 274 274 275 275
266 264 265 268 268 265 264 266 267 269 270 272 272 271 270 269 268 269 270 270 270 270 270 271 273 273 271 270 270 269 268 268 267 268 268 269 270 271 272 274 274 275 276 277
264 266 266 267 267 265 266 268 269 269 271 271 270 268 268 268 268 269 270 273 275 276 275 276 277 277 276 274 271 269 268 267 267 269 271 272 273 273 274 275 276 275 275 276
260 263 262 265 269 267 268 270 272 273 273 271 271 269 267 268 272 274 276 278 280 281 280 280 282 280 279 277 274 271 269 269 270 272 273 273 274 276 277 276 277 277 276 275
257 259 260 265 269 271 272 271 273 277 280 277 276 277 278 278 277 278 280 281 283 284 281 280 283 284 283 282 279 277 275 273 272 273 275 275 276 277 278 278 279 278 278 278
256 256 260 265 270 276 280 283 287 285 282 280 280 282 282 281 280 281 282 283 285 284 283 283 286 288 286 285 283 280 279 279 280 280 280 279 278 279 279 279 279 279 280 280
Height
5885 5886 5888 5889 5891 5893 5895 5897 5899 5900 5900 5900 5900 5900 5900 5900 5899 5899 5898 5898 5897 5896 5896 5895 5893 5892 5891 5890 5888 5887 5886 5885 5883 5882 5881 5880 5879 5877 5876 5875 5874 5873 5872 5871
5878 5879 5881 5883 5885 5887 5888 5890 5892 5893 5894 5894 5894 5894 5894 5894 5894 5894 5893 5893 5892 5892 5891 5890 5889 5888 5887 5886 5885 5883 5882 5881 5880 5878 5877 5876 5875 5874 5873 5872 5870 5869 5868 5867
5871 5873 5874 5876 5878 5880 5881 5883 5885 5886 5887 5886 5887 5888 5888 5888 5888 5888 5888 5887 5887 5886 5886 5885 5884 5883 5882 5881 5880 5878 5877 5876 5875 5873 5872 5871 5870 5869 5868 5867 5866 5865 5864 5863
5863 5866 5867 5871 5871 5873 5874 5875 5877 5878 5878 5879 5880 5881 5881 5881 5881 5881 5881 5881 5880 5880 5879 5879 5878 5877 5876 5875 5874 5873 5872 5871 5869 5868 5867 5866 5865 5864 5863 5862 5861 5861 5860 5859
5855 5857 5859 5862 5863 5865 5866 5867 5868 5870 5870 5871 5872 5873 5873 5873 5873 5873 5873 5873 5873 5872 5872 5872 5871 5871 5870 5869 5868 5867 5866 5865 5864 5863 5862 5860 5860 5858 5857 5856 5856 5855 5854 5854
5847 5849 5851 5854 5855 5857 5859 5858 5860 5861 5862 5863 5864 5865 5865 5865 5865 5865 5865 5865 5865 5864 5864 5864 5864 5863 5863 5862 5861 5860 5860 5859 5858 5857 5856 5855 5854 5853 5852 5851 5850 5850 5849 5848
5837 5839 5841 5844 5846 5848 5850 5851 5852 5853 5853 5854 5854 5856 5856 5856 5856 5856 5856 5856 5856 5856 5856 5856 5855 5855 5855 5854 5854 5853 5853 5852 5851 5850 5849 5848 5848 5847 5846 5845 5844 5844 5843 5842
5828 5830 5833 5834 5836 5839 5840 5841 5842 5843 5843 5844 5845 5845 5846 5846 5847 5847 5847 5847 5847 5847 5847 5847 5846 5846 5846 5846 5845 5845 5845 5844 5844 5843 5842 5842 5841 5840 5839 5838 5837 5837 5836 5835
5819 5822 5823 5824 5826 5828 5829 5831 5832 5833 5834 5834 5834 5835 5836 5836 5837 5837 5838 5838 5838 5838 5838 5838 5837 5837 5837 5837 5837 5837 5837 5836 5836 5835 5834 5834 5833 5832 5831 5830 5829 5829 5828 5828
5809 5811 5813 5814 5816 5817 5819 5820 5821 5822 5823 5823 5824 5824 5825 5826 5827 5827 5827 5828 5828 5828 5828 5828 5828 5828 5827 5827 5827 5828 5828 5828 5827 5827 5826 5826 5825 5824 5824 5823 5822 5821 5820 5820
5798 5801 5803 5804 5805 5807 5808 5809 5810 5811 5812 5812 5813 5814 5814 5815 5816 5816 5817 5817 5817 5817 5817 5818 5818 5818 5817 5817 5817 5818 5818 5818 5818 5818 5818 5817 5817 5816 5816 5815 5814 5814 5813 5812
5788 5791 5792 5794 5795 5796 5797 5798 5799 5800 5801 5801 5802 5803 5803 5804 5804 5805 5806 5806 5806 5806 5807 5807 5807 5807 5807 5807 5807 5808 5808 5809 5808 5808 5808 5808 5807 5807 5807 5806 5806 5805 5804 5803
5778 5780 5781 5783 5784 5785 5786 5787 5788 5789 5789 5790 5791 5791 5792 5792 5793 5793 5794 5794 5795 5796 5796 5796 5797 5797 5797 5798 5798 5798 5798 5798 5798 5798 5797 5797 5797 5797 5797 5797 5796 5795 5794 5793
5768 5769 5771 5772 5773 5774 5775 5776 5776 5777 5778 5778 5779 5779 5780 5781 5781 5782 5783 5783 5784 5784 5785 5786 5786 5786 5787 5787 5788 5788 5788 5788 5788 5787 5787 5787 5787 5786 5786 5786 5786 5785 5784 5783
5758 5759 5760 5761 5762 5763 5763 5764 5765 5765 5766 5766 5766 5767 5768 5769 5769 5770 5771 5771 5772 5773 5773 5774 5775 5776 5776 5777 5777 5777 5778 5778 5778 5778 5778 5777 5777 5776 5776 5775 5775 5774 5773 5773
5748 5749 5750 5750 5751 5752 5753 5753 5753 5754 5754 5754 5754 5755 5755 5756 5757 5758 5759 5760 5761 5761 5762 5763 5763 5764 5765 5766 5766 5767 5767 5768 5768 5767 5767 5767 5766 5766 5765 5765 5764 5764 5763 5762
5739 5739 5740 5740 5741 5741 5742 5742 5742 5742 5743 5743 5743 5743 5744 5744 5746 5746 5747 5748 5749 5750 5751 5752 5753 5753 5754 5755 5756 5756 5756 5757 5756 5757 5757 5756 5756 5756 5755 5755 5754 5753 5752 5751
5729 5730 5730 5730 5731 5731 5731 5732 5732 5732 5732 5732 5732 5732 5733 5734 5735 5736 5737 5738 5739 5740 5740 5741 5742 5743 5743 5744 5745 5745 5746 5746 5746 5746 5746 5746 5745 5745 5744 5743 5743 5742 5741 5740
5720 5720 5720 5720 5721 5721 5721 5721 5721 5721 5721 5722 5722 5723 5723 5724 5725 5726 5727 5728 5729 5730 5730 5731 5731 5732 5733 5733 5734 5734 5735 5735 5735 5735 5734 5734 5734 5733 5733 5732 5731 5730 5729 5728
5712 5711 5711 5711 5711 5711 5711 5712 5712 5712 5712 5713 5713 5714 5715 5715 5716 5716 5717 5718 5719 5720 5720 5720 5721 5721 5722 5722 5723 5723 5723 5723 5723 5723 5722 5722 5722 5721 5721 5720 5719 5718 5717 5717
5704 5704 5703 5703 5703 5703 5703 5703 5703 5704 5705 5705 5705 5706 5706 5707 5707 5708 5708 5709 5711 5711 5711 5711 5711 5712 5712 5712 5711 5711 5712 5712 5711 5711 5711 5711 5710 5710 5709 5708 5708 5707 5706 5705
5698 5698 5698 5697 5697 5697 5697 5697 5697 5698 5698 5698 5698 5699 5699 5699 5700 5700 5700 5701 5702 5702 5702 5702 5702 5702 5702 5701 5701 5701 5701 5701 5701 5700 5700 5699 5699 5699 5698 5697 5697 5696 5695 5694
5693 5693 5693 5692 5692 5692 5692 5692 5692 5692 5692 5692 5692 5692 5692 5692 5693 5693 5694 5694 5694 5694 5694 5694 5694 5693 5692 5692 5692 5692 5692 5691 5691 5690 5690 5689 5689 5688 5688 5687 5686 5685 5684 5683
5689 5689 5689 5688 5688 5688 5688 5688 5687 5687 5687 5687 5686 5687 5687 5687 5687 5687 5687 5687 5687 5687 5687 5687 5686 5685 5684 5683 5683 5683 5682 5682 5681 5681 5681 5680 5679 5678 5677 5676 5675 5675 5674 5673
5686 5686 5686 5686 5685 5685 5685 5684 5684 5683 5683 5682 5682 5682 5682 5682 5682 5682 5682 5682 5681 5681 5680 5680 5680 5678 5677 5676 5675 5674 5674 5673 5673 5672 5672 5671 5670 5669 5668 5666 5665 5664 5663 5663
5683 5684 5684 5684 5683 5683 5682 5682 5681 5680 5680 5679 5679 5679 5678 5678 5678 5677 5677 5676 5676 5675 5675 5674 5673 5672 5671 5670 5668 5667 5666 5666 5665 5664 5663 5662 5661 5660 5659 5658 5656 5655 5654 5653
5681 5681 5682 5682 5681 5681 5680 5680 5679 5678 5677 5677 5676 5676 5675 5674 5674 5673 5672 5672 5671 5670 5669 5668 5668 5667 5665 5664 5662 5661 5660 5659 5658 5657 5655 5654 5653 5651 5650 5649 5647 5646 5645 5644